Time,TemperatureF,DewpointF,PressureIn,WindDirection,WindDirectionDegrees,WindSpeedMPH,WindSpeedGustMPH,Humidity,HourlyPrecipIn,Conditions,Clouds,dailyrainin,SolarRadiationWatts/m^2,SoftwareType,DateUTC
2013-05-27 00:01:00,37.2,34.3,30.11,North,0,0.0,0.0,89,0.00,RA,,0.00,0.0,WeatherDisplay:10.37,2013-05-27 04:01:00,
2013-05-27 00:06:00,37.1,34.4,30.10,North,0,0.0,0.0,90,0.00,RA,,0.00,0.0,WeatherDisplay:10.37,2013-05-27 04:06:00,
2013-05-27 00:11:00,36.9,34.2,30.10,North,0,0.0,0.0,90,0.00,CLR,,0.00,0.0,WeatherDisplay:10.37,2013-05-27 04:11:00,
2013-05-27 00:16:00,36.7,34.0,30.10,North,0,0.0,0.0,90,0.00,CLR,,0.00,0.0,WeatherDisplay:10.37,2013-05-27 04:16:00,
2013-05-27 00:21:00,36.5,33.8,30.11,North,0,0.0,0.0,90,0.00,CLR,,0.00,0.0,WeatherDisplay:10.37,2013-05-27 04:21:00,
2013-05-27 00:26:00,36.3,33.6,30.11,North,0,0.0,0.0,90,0.00,CLR,,0.00,0.0,WeatherDisplay:10.37,2013-05-27 04:26:00,
2013-05-27 00:31:00,36.2,33.5,30.11,North,0,0.0,0.0,90,0.00,CLR,,0.00,0.0,WeatherDisplay:10.37,2013-05-27 04:31:00,
2013-05-27 00:36:00,36.0,33.4,30.11,North,0,0.0,0.0,90,0.00,CLR,,0.00,0.0,WeatherDisplay:10.37,2013-05-27 04:36:00,
2013-05-27 00:41:00,35.9,33.3,30.11,North,0,0.0,0.0,90,0.00,CLR,,0.00,0.0,WeatherDisplay:10.37,2013-05-27 04:41:00,
2013-05-27 00:46:00,35.8,33.2,30.11,North,0,0.0,0.0,90,0.00,CLR,,0.00,0.0,WeatherDisplay:10.37,2013-05-27 04:46:00,
2013-05-27 00:51:00,35.7,33.3,30.11,North,0,0.0,0.0,91,0.00,CLR,,0.00,0.0,WeatherDisplay:10.37,2013-05-27 04:51:00,
2013-05-27 00:56:00,35.6,33.2,30.11,North,0,0.0,0.0,91,0.00,CLR,,0.00,0.0,WeatherDisplay:10.37,2013-05-27 04:56:00,
2013-05-27 01:01:00,35.6,33.2,30.11,North,0,0.0,0.0,91,0.00,CLR,,0.00,0.0,WeatherDisplay:10.37,2013-05-27 05:01:00,
2013-05-27 01:06:00,35.6,33.5,30.11,North,0,0.0,0.0,92,0.00,CLR,,0.00,0.0,WeatherDisplay:10.37,2013-05-27 05:06:00,
2013-05-27 01:11:00,35.5,33.4,30.11,North,0,0.0,0.0,92,0.00,CLR,,0.00,0.0,WeatherDisplay:10.37,2013-05-27 05:11:00,
2013-05-27 01:16:00,35.5,33.4,30.11,North,0,0.0,0.0,92,0.00,CLR,,0.00,0.0,WeatherDisplay:10.37,2013-05-27 05:16:00,
2013-05-27 01:21:00,35.4,33.3,30.11,North,0,0.0,0.0,92,0.00,CLR,,0.00,0.0,WeatherDisplay:10.37,2013-05-27 05:21:00,
2013-05-27 01:26:00,35.4,33.3,30.11,North,0,0.0,0.0,92,0.00,CLR,,0.00,0.0,WeatherDisplay:10.37,2013-05-27 05:26:00,
2013-05-27 01:31:00,35.3,33.5,30.11,North,0,0.0,0.0,93,0.00,CLR,,0.00,0.0,WeatherDisplay:10.37,2013-05-27 05:31:00,
2013-05-27 01:36:00,35.2,33.4,30.11,North,0,0.0,0.0,93,0.00,CLR,,0.00,0.0,WeatherDisplay:10.37,2013-05-27 05:36:00,
2013-05-27 01:41:00,35.1,33.3,30.10,North,0,0.0,0.0,93,0.00,CLR,,0.00,0.0,WeatherDisplay:10.37,2013-05-27 05:41:00,
2013-05-27 01:46:00,35.1,33.3,30.10,North,0,0.0,0.0,93,0.00,CLR,,0.00,0.0,WeatherDisplay:10.37,2013-05-27 05:46:00,
2013-05-27 01:51:00,35.0,33.2,30.10,North,0,0.0,0.0,93,0.00,CLR,,0.00,0.0,WeatherDisplay:10.37,2013-05-27 05:51:00,
2013-05-27 01:56:00,34.9,33.1,30.10,North,0,0.0,0.0,93,0.00,CLR,,0.00,0.0,WeatherDisplay:10.37,2013-05-27 05:56:00,
2013-05-27 02:01:00,34.9,33.1,30.10,North,0,0.0,0.0,93,0.00,CLR,,0.00,0.0,WeatherDisplay:10.37,2013-05-27 06:01:00,
2013-05-27 02:06:00,34.8,33.2,30.10,North,0,0.0,0.0,94,0.00,CLR,,0.00,0.0,WeatherDisplay:10.37,2013-05-27 06:06:00,
2013-05-27 02:11:00,34.8,33.2,30.10,North,0,0.0,0.0,94,0.00,CLR,,0.00,0.0,WeatherDisplay:10.37,2013-05-27 06:11:00,
2013-05-27 02:16:00,34.8,33.2,30.10,North,0,0.0,0.0,94,0.00,CLR,,0.00,0.0,WeatherDisplay:10.37,2013-05-27 06:16:00,
2013-05-27 02:21:00,34.8,33.2,30.10,North,0,0.0,0.0,94,0.00,CLR,,0.00,0.0,WeatherDisplay:10.37,2013-05-27 06:21:00,
2013-05-27 02:26:00,34.8,33.2,30.10,North,0,0.0,0.0,94,0.00,CLR,,0.00,0.0,WeatherDisplay:10.37,2013-05-27 06:26:00,
2013-05-27 02:31:00,34.7,33.2,30.10,North,0,0.0,0.0,94,0.00,CLR,,0.00,0.0,WeatherDisplay:10.37,2013-05-27 06:31:00,
2013-05-27 02:36:00,34.7,33.2,30.10,North,0,0.0,0.0,94,0.00,CLR,,0.00,0.0,WeatherDisplay:10.37,2013-05-27 06:36:00,
2013-05-27 02:41:00,34.6,33.1,30.10,North,0,0.0,0.0,94,0.00,CLR,,0.00,0.0,WeatherDisplay:10.37,2013-05-27 06:41:00,
2013-05-27 02:46:00,34.7,33.2,30.10,North,0,0.0,0.0,94,0.00,CLR,,0.00,0.0,WeatherDisplay:10.37,2013-05-27 06:46:00,
2013-05-27 02:51:00,34.7,33.2,30.10,North,0,0.0,0.0,94,0.00,CLR,,0.00,0.0,WeatherDisplay:10.37,2013-05-27 06:51:00,
2013-05-27 02:56:00,34.7,33.2,30.10,North,0,0.0,0.0,94,0.00,CLR,,0.00,0.0,WeatherDisplay:10.37,2013-05-27 06:56:00,
2013-05-27 03:01:00,34.7,33.4,30.10,North,0,0.0,0.0,95,0.00,CLR,,0.00,0.0,WeatherDisplay:10.37,2013-05-27 07:01:00,
2013-05-27 03:06:00,34.7,33.4,30.10,North,0,0.0,0.0,95,0.00,CLR,,0.00,0.0,WeatherDisplay:10.37,2013-05-27 07:06:00,
2013-05-27 03:11:00,34.7,33.4,30.11,North,0,0.0,0.0,95,0.00,CLR,,0.00,0.0,WeatherDisplay:10.37,2013-05-27 07:11:00,
2013-05-27 03:16:00,34.7,33.4,30.11,North,0,0.0,0.0,95,0.00,CLR,,0.00,0.0,WeatherDisplay:10.37,2013-05-27 07:16:00,
2013-05-27 03:21:00,34.8,33.5,30.11,North,0,0.0,0.0,95,0.00,CLR,,0.00,0.0,WeatherDisplay:10.37,2013-05-27 07:21:00,
2013-05-27 03:26:00,34.8,33.5,30.11,North,0,0.0,0.0,95,0.00,CLR,,0.00,0.0,WeatherDisplay:10.37,2013-05-27 07:26:00,
2013-05-27 03:31:00,34.7,33.4,30.11,North,0,0.0,0.0,95,0.00,CLR,,0.00,0.0,WeatherDisplay:10.37,2013-05-27 07:31:00,
2013-05-27 03:36:00,34.7,33.4,30.11,North,0,0.0,0.0,95,0.00,CLR,,0.00,0.0,WeatherDisplay:10.37,2013-05-27 07:36:00,
2013-05-27 03:41:00,34.6,33.3,30.11,North,0,0.0,0.0,95,0.00,CLR,,0.00,0.0,WeatherDisplay:10.37,2013-05-27 07:41:00,
2013-05-27 03:46:00,34.6,33.3,30.11,North,0,0.0,0.0,95,0.00,CLR,,0.00,0.0,WeatherDisplay:10.37,2013-05-27 07:46:00,
2013-05-27 03:51:00,34.6,33.3,30.11,North,0,0.0,0.0,95,0.00,CLR,,0.00,0.0,WeatherDisplay:10.37,2013-05-27 07:51:00,
2013-05-27 03:56:00,34.5,33.2,30.10,North,0,0.0,0.0,95,0.00,CLR,,0.00,0.0,WeatherDisplay:10.37,2013-05-27 07:56:00,
2013-05-27 04:01:00,34.5,33.2,30.10,North,0,0.0,0.0,95,0.00,CLR,,0.00,0.0,WeatherDisplay:10.37,2013-05-27 08:01:00,
2013-05-27 04:06:00,34.5,33.2,30.11,North,0,0.0,0.0,95,0.00,CLR,,0.00,0.0,WeatherDisplay:10.37,2013-05-27 08:06:00,
2013-05-27 04:11:00,34.5,33.2,30.11,North,0,0.0,0.0,95,0.00,CLR,,0.00,0.0,WeatherDisplay:10.37,2013-05-27 08:11:00,
2013-05-27 04:16:00,34.5,33.2,30.11,North,0,0.0,0.0,95,0.00,CLR,,0.00,0.0,WeatherDisplay:10.37,2013-05-27 08:16:00,
2013-05-27 04:21:00,34.5,33.2,30.11,North,0,0.0,0.0,95,0.00,CLR,,0.00,0.0,WeatherDisplay:10.37,2013-05-27 08:21:00,
2013-05-27 04:26:00,34.5,33.2,30.11,North,0,0.0,0.0,95,0.00,CLR,,0.00,0.0,WeatherDisplay:10.37,2013-05-27 08:26:00,
2013-05-27 04:31:00,34.5,33.5,30.11,North,0,0.0,0.0,96,0.00,CLR,,0.00,0.0,WeatherDisplay:10.37,2013-05-27 08:31:00,
2013-05-27 04:36:00,34.5,33.5,30.12,North,0,0.0,0.0,96,0.00,CLR,,0.00,0.0,WeatherDisplay:10.37,2013-05-27 08:36:00,
2013-05-27 04:41:00,34.5,33.5,30.12,North,0,0.0,0.0,96,0.00,CLR,,0.00,0.0,WeatherDisplay:10.37,2013-05-27 08:41:00,
2013-05-27 04:46:00,34.5,33.5,30.12,North,0,0.0,0.0,96,0.00,CLR,,0.00,0.0,WeatherDisplay:10.37,2013-05-27 08:46:00,
2013-05-27 04:51:00,34.5,33.5,30.12,North,0,0.0,0.0,96,0.00,CLR,,0.00,0.0,WeatherDisplay:10.37,2013-05-27 08:51:00,
2013-05-27 04:56:00,34.5,33.5,30.12,North,0,0.0,0.0,96,0.00,CLR,,0.00,0.0,WeatherDisplay:10.37,2013-05-27 08:56:00,
2013-05-27 05:01:00,34.5,33.5,30.12,North,0,0.0,0.0,96,0.00,CLR,,0.00,0.0,WeatherDisplay:10.37,2013-05-27 09:01:00,
2013-05-27 05:06:00,34.5,33.5,30.12,North,0,0.0,0.0,96,0.00,CLR,,0.00,0.0,WeatherDisplay:10.37,2013-05-27 09:06:00,
2013-05-27 05:11:00,34.5,33.5,30.12,North,0,0.0,0.0,96,0.00,CLR,,0.00,0.0,WeatherDisplay:10.37,2013-05-27 09:11:00,
2013-05-27 05:16:00,34.5,33.5,30.12,North,0,0.0,0.0,96,0.00,CLR,,0.00,0.0,WeatherDisplay:10.37,2013-05-27 09:16:00,
2013-05-27 05:21:00,34.5,33.5,30.12,North,0,0.0,0.0,96,0.00,CLR,,0.00,0.0,WeatherDisplay:10.37,2013-05-27 09:21:00,
2013-05-27 05:26:00,34.5,33.5,30.12,North,0,0.0,0.0,96,0.00,CLR,,0.00,5.0,WeatherDisplay:10.37,2013-05-27 09:26:00,
2013-05-27 05:31:00,34.5,33.5,30.13,North,0,0.0,0.0,96,0.00,CLR,,0.00,7.0,WeatherDisplay:10.37,2013-05-27 09:31:00,
2013-05-27 05:36:00,34.5,33.5,30.13,North,0,0.0,0.0,96,0.00,CLR,,0.00,9.0,WeatherDisplay:10.37,2013-05-27 09:36:00,
2013-05-27 05:41:00,34.5,33.5,30.13,North,0,0.0,0.0,96,0.00,CLR,,0.00,11.0,WeatherDisplay:10.37,2013-05-27 09:41:00,
2013-05-27 05:46:00,34.5,33.5,30.13,North,0,0.0,0.0,96,0.00,CLR,,0.00,12.0,WeatherDisplay:10.37,2013-05-27 09:46:00,
2013-05-27 05:51:00,34.5,33.5,30.14,North,0,0.0,0.0,96,0.00,CLR,,0.00,14.0,WeatherDisplay:10.37,2013-05-27 09:51:00,
2013-05-27 05:56:00,34.5,33.5,30.14,North,0,0.0,0.0,96,0.00,CLR,,0.00,18.0,WeatherDisplay:10.37,2013-05-27 09:56:00,
2013-05-27 06:01:00,34.7,33.7,30.14,North,0,0.0,0.0,96,0.00,CLR,,0.00,19.0,WeatherDisplay:10.37,2013-05-27 10:01:00,
2013-05-27 06:06:00,34.8,33.8,30.14,North,0,0.0,0.0,96,0.00,CLR,,0.00,23.0,WeatherDisplay:10.37,2013-05-27 10:06:00,
2013-05-27 06:11:00,34.9,34.1,30.14,North,0,0.0,0.0,97,0.00,CLR,,0.00,25.0,WeatherDisplay:10.37,2013-05-27 10:11:00,
2013-05-27 06:16:00,35.0,34.2,30.14,North,0,0.0,0.0,97,0.00,CLR,,0.00,26.0,WeatherDisplay:10.37,2013-05-27 10:16:00,
2013-05-27 06:21:00,35.1,34.3,30.14,North,0,0.0,0.0,97,0.00,CLR,,0.00,28.0,WeatherDisplay:10.37,2013-05-27 10:21:00,
2013-05-27 06:26:00,35.3,34.5,30.15,North,0,0.0,0.0,97,0.00,CLR,,0.00,32.0,WeatherDisplay:10.37,2013-05-27 10:26:00,
2013-05-27 06:31:00,35.5,34.7,30.15,North,0,0.0,0.0,97,0.00,CLR,,0.00,33.0,WeatherDisplay:10.37,2013-05-27 10:31:00,
2013-05-27 06:36:00,35.7,34.9,30.15,North,0,0.0,0.0,97,0.00,CLR,,0.00,35.0,WeatherDisplay:10.37,2013-05-27 10:36:00,
2013-05-27 06:41:00,35.9,35.1,30.15,North,0,0.0,0.0,97,0.00,CLR,,0.00,37.0,WeatherDisplay:10.37,2013-05-27 10:41:00,
2013-05-27 06:46:00,36.1,35.3,30.15,North,0,0.0,0.0,97,0.00,CLR,,0.00,39.0,WeatherDisplay:10.37,2013-05-27 10:46:00,
2013-05-27 06:51:00,36.3,35.5,30.15,North,0,0.0,0.0,97,0.00,CLR,,0.00,40.0,WeatherDisplay:10.37,2013-05-27 10:51:00,
2013-05-27 06:56:00,36.6,35.8,30.15,North,0,0.0,0.0,97,0.00,CLR,,0.00,42.0,WeatherDisplay:10.37,2013-05-27 10:56:00,
2013-05-27 07:01:00,36.9,36.1,30.15,North,0,0.0,0.0,97,0.00,OVC,,0.00,44.0,WeatherDisplay:10.37,2013-05-27 11:01:00,
2013-05-27 07:06:00,37.3,36.5,30.15,North,0,0.0,0.0,97,0.00,OVC,,0.00,46.0,WeatherDisplay:10.37,2013-05-27 11:06:00,
2013-05-27 07:11:00,37.7,36.9,30.15,North,0,0.0,0.0,97,0.00,OVC,,0.00,47.0,WeatherDisplay:10.37,2013-05-27 11:11:00,
2013-05-27 07:16:00,38.1,37.3,30.15,North,0,0.0,0.0,97,0.00,OVC,,0.00,62.0,WeatherDisplay:10.37,2013-05-27 11:16:00,
2013-05-27 07:21:00,38.5,38.0,30.15,North,0,0.0,0.0,98,0.00,OVC,,0.00,86.0,WeatherDisplay:10.37,2013-05-27 11:21:00,
2013-05-27 07:26:00,38.8,38.3,30.15,North,0,0.0,0.0,98,0.00,OVC,,0.00,69.0,WeatherDisplay:10.37,2013-05-27 11:26:00,
2013-05-27 07:31:00,39.2,38.7,30.15,North,0,0.0,0.0,98,0.00,OVC,,0.00,123.0,WeatherDisplay:10.37,2013-05-27 11:31:00,
2013-05-27 07:36:00,39.6,39.1,30.15,North,0,0.0,0.0,98,0.00,OVC,,0.00,142.0,WeatherDisplay:10.37,2013-05-27 11:36:00,
2013-05-27 07:41:00,40.0,39.5,30.15,North,0,0.0,0.0,98,0.00,OVC,,0.00,111.0,WeatherDisplay:10.37,2013-05-27 11:41:00,
2013-05-27 07:46:00,40.6,40.1,30.15,North,0,0.0,0.0,98,0.00,OVC,,0.00,88.0,WeatherDisplay:10.37,2013-05-27 11:46:00,
2013-05-27 07:51:00,41.1,40.6,30.15,North,0,0.0,0.0,98,0.00,OVC,,0.00,183.0,WeatherDisplay:10.37,2013-05-27 11:51:00,
2013-05-27 07:56:00,41.4,40.9,30.15,North,0,0.0,0.0,98,0.00,OVC,,0.00,149.0,WeatherDisplay:10.37,2013-05-27 11:56:00,
2013-05-27 08:01:00,41.8,41.3,30.15,North,0,0.0,0.0,98,0.00,OVC,,0.00,91.0,WeatherDisplay:10.37,2013-05-27 12:01:00,
2013-05-27 08:06:00,42.1,41.6,30.15,North,0,0.0,0.0,98,0.00,OVC,,0.00,271.0,WeatherDisplay:10.37,2013-05-27 12:06:00,
2013-05-27 08:11:00,42.5,42.0,30.16,North,0,0.0,0.0,98,0.00,OVC,,0.00,432.0,WeatherDisplay:10.37,2013-05-27 12:11:00,
2013-05-27 08:16:00,42.9,42.4,30.16,North,0,0.0,0.0,98,0.00,OVC,,0.00,450.0,WeatherDisplay:10.37,2013-05-27 12:16:00,
2013-05-27 08:21:00,43.4,42.9,30.16,North,0,0.0,0.0,98,0.00,OVC,,0.00,473.0,WeatherDisplay:10.37,2013-05-27 12:21:00,
2013-05-27 08:26:00,43.9,43.4,30.16,North,0,0.0,0.0,98,0.00,OVC,,0.00,508.0,WeatherDisplay:10.37,2013-05-27 12:26:00,
2013-05-27 08:31:00,44.5,44.0,30.16,North,0,0.0,0.0,98,0.00,OVC,,0.00,527.0,WeatherDisplay:10.37,2013-05-27 12:31:00,
2013-05-27 08:36:00,45.2,44.7,30.16,North,0,0.0,0.0,98,0.00,OVC,,0.00,545.0,WeatherDisplay:10.37,2013-05-27 12:36:00,
2013-05-27 08:41:00,46.2,45.4,30.16,North,0,0.0,0.0,97,0.00,OVC,,0.00,563.0,WeatherDisplay:10.37,2013-05-27 12:41:00,
2013-05-27 08:46:00,47.0,46.2,30.15,North,0,0.0,0.0,97,0.00,OVC,,0.00,578.0,WeatherDisplay:10.37,2013-05-27 12:46:00,
2013-05-27 08:51:00,48.0,46.6,30.16,North,0,0.0,0.0,95,0.00,OVC,,0.00,594.0,WeatherDisplay:10.37,2013-05-27 12:51:00,
2013-05-27 08:56:00,48.9,46.4,30.16,North,0,0.0,0.0,91,0.00,OVC,,0.00,612.0,WeatherDisplay:10.37,2013-05-27 12:56:00,
2013-05-27 09:01:00,49.8,45.8,30.16,North,0,0.0,0.0,86,0.00,OVC,,0.00,626.0,WeatherDisplay:10.37,2013-05-27 13:01:00,
2013-05-27 09:06:00,50.7,45.4,30.15,North,0,0.0,0.0,82,0.00,OVC,,0.00,642.0,WeatherDisplay:10.37,2013-05-27 13:06:00,
2013-05-27 09:11:00,51.6,44.6,30.15,North,0,0.0,0.0,77,0.00,OVC,,0.00,652.0,WeatherDisplay:10.37,2013-05-27 13:11:00,
2013-05-27 09:16:00,52.4,44.7,30.15,North,0,0.0,0.0,75,0.00,OVC,,0.00,668.0,WeatherDisplay:10.37,2013-05-27 13:16:00,
2013-05-27 09:21:00,53.2,44.0,30.16,North,0,0.0,0.0,71,0.00,OVC,,0.00,682.0,WeatherDisplay:10.37,2013-05-27 13:21:00,
2013-05-27 09:26:00,54.0,44.4,30.15,North,0,0.0,0.0,70,0.00,OVC,,0.00,698.0,WeatherDisplay:10.37,2013-05-27 13:26:00,
2013-05-27 09:31:00,54.8,44.8,30.15,North,0,0.0,0.0,69,0.00,OVC,,0.00,712.0,WeatherDisplay:10.37,2013-05-27 13:31:00,
2013-05-27 09:36:00,55.5,43.9,30.15,North,0,0.0,0.0,65,0.00,OVC,,0.00,724.0,WeatherDisplay:10.37,2013-05-27 13:36:00,
2013-05-27 09:41:00,56.2,44.6,30.15,North,0,0.0,0.0,65,0.00,OVC,,0.00,738.0,WeatherDisplay:10.37,2013-05-27 13:41:00,
2013-05-27 09:46:00,56.8,44.3,30.15,North,0,0.0,0.0,63,0.00,OVC,,0.00,749.0,WeatherDisplay:10.37,2013-05-27 13:46:00,
2013-05-27 09:51:00,57.4,44.5,30.15,North,0,0.0,0.0,62,0.00,OVC,,0.00,759.0,WeatherDisplay:10.37,2013-05-27 13:51:00,
2013-05-27 09:56:00,57.9,45.4,30.15,North,0,0.0,0.0,63,0.00,OVC,,0.00,773.0,WeatherDisplay:10.37,2013-05-27 13:56:00,
2013-05-27 10:01:00,58.2,43.5,30.15,North,0,0.0,0.0,58,0.00,OVC,,0.00,786.0,WeatherDisplay:10.37,2013-05-27 14:01:00,
2013-05-27 10:06:00,58.7,45.3,30.15,North,0,0.0,0.0,61,0.00,OVC,,0.00,796.0,WeatherDisplay:10.37,2013-05-27 14:06:00,
2013-05-27 10:11:00,59.1,43.9,30.15,North,0,0.0,0.0,57,0.00,OVC,,0.00,809.0,WeatherDisplay:10.37,2013-05-27 14:11:00,
2013-05-27 10:16:00,59.6,46.1,30.14,North,0,0.0,0.0,61,0.00,CLR,,0.00,817.0,WeatherDisplay:10.37,2013-05-27 14:16:00,
2013-05-27 10:21:00,60.1,44.3,30.14,North,0,0.0,0.0,56,0.00,CLR,,0.00,830.0,WeatherDisplay:10.37,2013-05-27 14:21:00,
2013-05-27 10:26:00,60.5,43.8,30.14,North,0,0.0,0.0,54,0.00,CLR,,0.00,842.0,WeatherDisplay:10.37,2013-05-27 14:26:00,
2013-05-27 10:31:00,60.7,41.9,30.14,North,0,0.0,0.0,50,0.00,CLR,,0.00,854.0,WeatherDisplay:10.37,2013-05-27 14:31:00,
2013-05-27 10:36:00,61.0,43.7,30.14,North,0,0.0,0.0,53,0.00,CLR,,0.00,865.0,WeatherDisplay:10.37,2013-05-27 14:36:00,
2013-05-27 10:41:00,61.3,40.3,30.14,North,0,0.0,0.0,46,0.00,CLR,,0.00,874.0,WeatherDisplay:10.37,2013-05-27 14:41:00,
2013-05-27 10:46:00,61.5,41.1,30.14,North,0,0.0,0.0,47,0.00,CLR,,0.00,884.0,WeatherDisplay:10.37,2013-05-27 14:46:00,
2013-05-27 10:51:00,61.5,42.2,30.14,North,0,0.0,0.0,49,0.00,CLR,,0.00,893.0,WeatherDisplay:10.37,2013-05-27 14:51:00,
2013-05-27 10:56:00,61.6,40.6,30.14,North,0,0.0,0.0,46,0.00,CLR,,0.00,896.0,WeatherDisplay:10.37,2013-05-27 14:56:00,
2013-05-27 11:01:00,61.6,38.3,30.14,North,0,0.0,0.0,42,0.00,CLR,,0.00,904.0,WeatherDisplay:10.37,2013-05-27 15:01:00,
2013-05-27 11:06:00,61.6,41.2,30.14,North,0,0.0,0.0,47,0.00,CLR,,0.00,911.0,WeatherDisplay:10.37,2013-05-27 15:06:00,
2013-05-27 11:11:00,62.0,40.4,30.14,West,281,6.0,6.0,45,0.00,CLR,,0.00,918.0,WeatherDisplay:10.37,2013-05-27 15:11:00,
2013-05-27 11:16:00,62.3,40.1,30.14,NNE,30,6.9,6.9,44,0.00,CLR,,0.00,926.0,WeatherDisplay:10.37,2013-05-27 15:16:00,
2013-05-27 11:21:00,62.4,39.6,30.14,NNW,333,14.0,14.0,43,0.00,CLR,,0.00,937.0,WeatherDisplay:10.37,2013-05-27 15:21:00,
2013-05-27 11:26:00,62.8,42.3,30.14,WSW,245,16.1,16.1,47,0.00,CLR,,0.00,940.0,WeatherDisplay:10.37,2013-05-27 15:26:00,
2013-05-27 11:31:00,63.2,38.5,30.14,North,349,12.7,12.7,40,0.00,CLR,,0.00,947.0,WeatherDisplay:10.37,2013-05-27 15:31:00,
2013-05-27 11:36:00,63.4,41.7,30.13,West,263,5.8,5.8,45,0.00,CLR,,0.00,953.0,WeatherDisplay:10.37,2013-05-27 15:36:00,
2013-05-27 11:41:00,63.8,40.3,30.13,NW,323,15.0,15.0,42,0.00,CLR,,0.00,960.0,WeatherDisplay:10.37,2013-05-27 15:41:00,
2013-05-27 11:46:00,63.9,39.1,30.13,West,278,19.6,19.6,40,0.00,CLR,,0.00,963.0,WeatherDisplay:10.37,2013-05-27 15:46:00,
2013-05-27 11:51:00,63.8,39.0,30.13,SW,221,19.6,19.6,40,0.00,CLR,,0.00,967.0,WeatherDisplay:10.37,2013-05-27 15:51:00,
2013-05-27 11:56:00,64.1,42.3,30.13,North,5,12.7,12.7,45,0.00,CLR,,0.00,970.0,WeatherDisplay:10.37,2013-05-27 15:56:00,
2013-05-27 12:01:00,64.1,38.6,30.13,WNW,300,4.6,4.6,39,0.00,CLR,,0.00,972.0,WeatherDisplay:10.37,2013-05-27 16:01:00,
2013-05-27 12:06:00,64.2,40.0,30.12,WNW,294,15.0,15.0,41,0.00,CLR,,0.00,976.0,WeatherDisplay:10.37,2013-05-27 16:06:00,
2013-05-27 12:11:00,64.2,38.0,30.12,WNW,287,4.6,4.6,38,0.00,CLR,,0.00,977.0,WeatherDisplay:10.37,2013-05-27 16:11:00,
2013-05-27 12:16:00,64.2,38.0,30.12,North,355,10.4,10.4,38,0.00,CLR,,0.00,981.0,WeatherDisplay:10.37,2013-05-27 16:16:00,
2013-05-27 12:21:00,64.2,37.4,30.12,West,263,1.2,1.2,37,0.00,CLR,,0.00,981.0,WeatherDisplay:10.37,2013-05-27 16:21:00,
2013-05-27 12:26:00,64.3,40.1,30.12,WSW,257,3.5,3.5,41,0.00,CLR,,0.00,984.0,WeatherDisplay:10.37,2013-05-27 16:26:00,
2013-05-27 12:31:00,64.3,38.1,30.12,NNW,339,11.5,11.5,38,0.00,CLR,,0.00,983.0,WeatherDisplay:10.37,2013-05-27 16:31:00,
2013-05-27 12:36:00,64.7,42.3,30.12,NNW,333,11.5,11.5,44,0.00,CLR,,0.00,981.0,WeatherDisplay:10.37,2013-05-27 16:36:00,
2013-05-27 12:41:00,65.1,40.8,30.12,SW,235,9.2,9.2,41,0.00,CLR,,0.00,984.0,WeatherDisplay:10.37,2013-05-27 16:41:00,
2013-05-27 12:46:00,65.3,40.3,30.12,NNW,327,13.8,13.8,40,0.00,CLR,,0.00,990.0,WeatherDisplay:10.37,2013-05-27 16:46:00,
2013-05-27 12:51:00,65.2,42.1,30.12,WNW,300,10.4,10.4,43,0.00,CLR,,0.00,984.0,WeatherDisplay:10.37,2013-05-27 16:51:00,
2013-05-27 12:56:00,65.4,40.4,30.12,North,355,6.9,6.9,40,0.00,CLR,,0.00,981.0,WeatherDisplay:10.37,2013-05-27 16:56:00,
2013-05-27 13:01:00,65.4,39.8,30.12,NW,309,7.0,7.0,39,0.00,CLR,,0.00,983.0,WeatherDisplay:10.37,2013-05-27 17:01:00,
2013-05-27 13:06:00,65.4,40.4,30.12,West,277,13.8,13.8,40,0.00,CLR,,0.00,986.0,WeatherDisplay:10.37,2013-05-27 17:06:00,
2013-05-27 13:11:00,65.5,37.1,30.12,NNW,331,11.5,11.5,35,0.00,CLR,,0.00,979.0,WeatherDisplay:10.37,2013-05-27 17:11:00,
2013-05-27 13:16:00,65.3,39.0,30.12,North,351,12.7,12.7,38,0.00,CLR,,0.00,974.0,WeatherDisplay:10.37,2013-05-27 17:16:00,
2013-05-27 13:21:00,65.1,36.8,30.12,WNW,288,3.5,3.5,35,0.00,CLR,,0.00,977.0,WeatherDisplay:10.37,2013-05-27 17:21:00,
2013-05-27 13:26:00,65.0,37.4,30.11,NNW,344,2.3,2.3,36,0.00,CLR,,0.00,974.0,WeatherDisplay:10.37,2013-05-27 17:26:00,
2013-05-27 13:31:00,65.5,37.8,30.12,North,350,6.9,6.9,36,0.00,CLR,,0.00,981.0,WeatherDisplay:10.37,2013-05-27 17:31:00,
2013-05-27 13:36:00,65.8,42.1,30.11,NNW,336,5.8,5.8,42,0.00,CLR,,0.00,979.0,WeatherDisplay:10.37,2013-05-27 17:36:00,
2013-05-27 13:41:00,65.9,40.2,30.11,WNW,300,4.6,0.0,39,0.00,CLR,,0.00,923.0,WeatherDisplay:10.37,2013-05-27 17:41:00,
2013-05-27 13:46:00,66.3,41.2,30.12,NNW,342,2.0,2.0,40,0.00,CLR,,0.00,951.0,WeatherDisplay:10.37,2013-05-27 17:46:00,
2013-05-27 13:51:00,66.5,39.4,30.11,NE,42,11.5,11.5,37,0.00,CLR,,0.00,954.0,WeatherDisplay:10.37,2013-05-27 17:51:00,
2013-05-27 13:56:00,66.7,41.6,30.11,NNW,328,11.5,11.5,40,0.00,CLR,,0.00,893.0,WeatherDisplay:10.37,2013-05-27 17:56:00,
2013-05-27 14:01:00,66.9,41.1,30.11,NNW,335,3.5,3.5,39,0.00,CLR,,0.00,946.0,WeatherDisplay:10.37,2013-05-27 18:01:00,
2013-05-27 14:06:00,66.9,41.8,30.11,WNW,292,11.5,11.5,40,0.00,CLR,,0.00,895.0,WeatherDisplay:10.37,2013-05-27 18:06:00,
2013-05-27 14:11:00,67.1,42.6,30.10,WNW,302,3.5,3.5,41,0.00,CLR,,0.00,949.0,WeatherDisplay:10.37,2013-05-27 18:11:00,
2013-05-27 14:16:00,67.5,42.3,30.11,West,266,5.8,5.8,40,0.00,CLR,,0.00,935.0,WeatherDisplay:10.37,2013-05-27 18:16:00,
2013-05-27 14:21:00,67.9,44.6,30.10,WNW,286,4.6,5.3,43,0.00,CLR,,0.00,907.0,WeatherDisplay:10.37,2013-05-27 18:21:00,
2013-05-27 14:26:00,68.1,40.8,30.10,NNW,348,4.6,4.6,37,0.00,CLR,,0.00,893.0,WeatherDisplay:10.37,2013-05-27 18:26:00,
2013-05-27 14:32:00,67.9,40.7,30.10,WNW,294,4.6,4.6,37,0.00,CLR,,0.00,896.0,WeatherDisplay:10.37,2013-05-27 18:32:00,
2013-05-27 14:37:00,67.8,41.9,30.10,NNW,332,3.5,3.5,39,0.00,CLR,,0.00,884.0,WeatherDisplay:10.37,2013-05-27 18:37:00,
2013-05-27 14:42:00,67.8,42.6,30.10,WNW,287,4.6,4.6,40,0.00,CLR,,0.00,867.0,WeatherDisplay:10.37,2013-05-27 18:42:00,
2013-05-27 14:47:00,68.0,43.4,30.10,North,5,9.2,9.2,41,0.00,CLR,,0.00,867.0,WeatherDisplay:10.37,2013-05-27 18:47:00,
2013-05-27 14:52:00,68.1,40.8,30.10,WNW,297,3.5,3.5,37,0.00,CLR,,0.00,860.0,WeatherDisplay:10.37,2013-05-27 18:52:00,
2013-05-27 14:57:00,68.3,42.4,30.10,West,280,5.0,5.0,39,0.00,CLR,,0.00,847.0,WeatherDisplay:10.37,2013-05-27 18:57:00,
2013-05-27 15:02:00,68.5,40.5,30.10,WNW,298,9.2,9.2,36,0.00,CLR,,0.00,835.0,WeatherDisplay:10.37,2013-05-27 19:02:00,
2013-05-27 15:07:00,68.6,40.6,30.10,North,350,1.2,1.2,36,0.00,CLR,,0.00,826.0,WeatherDisplay:10.37,2013-05-27 19:07:00,
2013-05-27 15:12:00,68.8,39.3,30.10,ESE,114,11.5,11.5,34,0.00,FEW,,0.00,821.0,WeatherDisplay:10.37,2013-05-27 19:12:00,
2013-05-27 15:17:00,69.0,42.3,30.09,West,275,6.0,6.0,38,0.00,FEW,,0.00,807.0,WeatherDisplay:10.37,2013-05-27 19:17:00,
2013-05-27 15:22:00,69.1,39.5,30.09,NE,51,13.8,13.8,34,0.00,FEW,,0.00,795.0,WeatherDisplay:10.37,2013-05-27 19:22:00,
2013-05-27 15:27:00,69.0,43.0,30.10,NW,319,12.7,12.7,39,0.00,FEW,,0.00,786.0,WeatherDisplay:10.37,2013-05-27 19:27:00,
2013-05-27 15:32:00,68.8,39.3,30.10,WSW,238,11.5,11.5,34,0.00,FEW,,0.00,770.0,WeatherDisplay:10.37,2013-05-27 19:32:00,
2013-05-27 15:37:00,69.0,39.4,30.10,North,350,3.5,3.5,34,0.00,FEW,,0.00,758.0,WeatherDisplay:10.37,2013-05-27 19:37:00,
2013-05-27 15:42:00,68.9,40.1,30.10,WNW,298,10.4,10.4,35,0.00,FEW,,0.00,747.0,WeatherDisplay:10.37,2013-05-27 19:42:00,
2013-05-27 15:47:00,68.8,39.3,30.10,WNW,297,9.2,9.2,34,0.00,FEW,,0.00,737.0,WeatherDisplay:10.37,2013-05-27 19:47:00,
2013-05-27 15:52:00,68.8,40.0,30.09,East,80,3.5,3.5,35,0.00,FEW,,0.00,722.0,WeatherDisplay:10.37,2013-05-27 19:52:00,
2013-05-27 15:57:00,68.9,39.4,30.09,NW,314,6.9,8.2,34,0.00,FEW,,0.00,708.0,WeatherDisplay:10.37,2013-05-27 19:57:00,
2013-05-27 16:02:00,69.0,41.6,30.09,WNW,289,4.6,4.6,37,0.00,SCT,,0.00,693.0,WeatherDisplay:10.37,2013-05-27 20:02:00,
2013-05-27 16:07:00,69.0,42.3,30.09,West,279,3.5,3.5,38,0.00,SCT,,0.00,677.0,WeatherDisplay:10.37,2013-05-27 20:07:00,
2013-05-27 16:12:00,69.0,40.9,30.09,NNW,340,2.0,2.0,36,0.00,SCT,,0.00,666.0,WeatherDisplay:10.37,2013-05-27 20:12:00,
2013-05-27 16:17:00,69.0,40.9,30.09,North,10,9.2,9.2,36,0.00,SCT,,0.00,650.0,WeatherDisplay:10.37,2013-05-27 20:17:00,
2013-05-27 16:22:00,68.9,39.4,30.09,WNW,288,10.4,10.4,34,0.00,SCT,,0.00,640.0,WeatherDisplay:10.37,2013-05-27 20:22:00,
2013-05-27 16:27:00,68.6,38.3,30.09,WNW,285,3.5,3.5,33,0.00,SCT,,0.00,622.0,WeatherDisplay:10.37,2013-05-27 20:27:00,
2013-05-27 16:32:00,68.6,39.8,30.09,NW,304,3.5,3.5,35,0.00,BKN,,0.00,575.0,WeatherDisplay:10.37,2013-05-27 20:32:00,
2013-05-27 16:37:00,68.4,39.7,30.09,North,9,5.8,5.8,35,0.00,SCT,,0.00,287.0,WeatherDisplay:10.37,2013-05-27 20:37:00,
2013-05-27 16:42:00,68.2,38.7,30.09,NW,321,8.1,0.0,34,0.00,BKN,,0.00,93.0,WeatherDisplay:10.37,2013-05-27 20:42:00,
2013-05-27 16:47:00,68.0,41.4,30.09,WNW,297,4.6,4.6,38,0.00,BKN,,0.00,239.0,WeatherDisplay:10.37,2013-05-27 20:47:00,
2013-05-27 16:52:00,67.7,39.0,30.09,NW,315,4.0,5.3,35,0.00,BKN,,0.00,142.0,WeatherDisplay:10.37,2013-05-27 20:52:00,
2013-05-27 16:57:00,67.3,39.4,30.09,NNW,347,3.5,3.5,36,0.00,OVC,,0.00,58.0,WeatherDisplay:10.37,2013-05-27 20:57:00,
2013-05-27 17:02:00,67.0,38.4,30.09,ENE,63,5.8,5.8,35,0.00,OVC,,0.00,56.0,WeatherDisplay:10.37,2013-05-27 21:02:00,
2013-05-27 17:07:00,66.6,38.1,30.09,NNW,333,3.0,3.0,35,0.00,OVC,,0.00,54.0,WeatherDisplay:10.37,2013-05-27 21:07:00,
2013-05-27 17:12:00,66.3,37.8,30.09,NNE,26,0.0,0.0,35,0.00,OVC,,0.00,54.0,WeatherDisplay:10.37,2013-05-27 21:12:00,
2013-05-27 17:17:00,66.0,41.0,30.09,NE,55,2.3,2.3,40,0.00,OVC,,0.00,53.0,WeatherDisplay:10.37,2013-05-27 21:17:00,
2013-05-27 17:22:00,65.8,40.1,30.09,NW,309,11.5,11.5,39,0.00,OVC,,0.00,53.0,WeatherDisplay:10.37,2013-05-27 21:22:00,
2013-05-27 17:27:00,65.7,40.1,30.09,SW,223,11.5,11.5,39,0.00,OVC,,0.00,60.0,WeatherDisplay:10.37,2013-05-27 21:27:00,
2013-05-27 17:32:00,65.6,43.1,30.09,SW,215,4.0,5.1,44,0.00,OVC,,0.00,62.0,WeatherDisplay:10.37,2013-05-27 21:32:00,
2013-05-27 17:37:00,65.4,41.7,30.09,West,269,4.0,4.0,42,0.00,OVC,,0.00,47.0,WeatherDisplay:10.37,2013-05-27 21:37:00,
2013-05-27 17:42:00,65.3,41.6,30.09,West,270,6.9,6.9,42,0.00,OVC,,0.00,60.0,WeatherDisplay:10.37,2013-05-27 21:42:00,
2013-05-27 17:47:00,65.2,43.9,30.09,West,277,2.3,2.3,46,0.00,OVC,,0.00,54.0,WeatherDisplay:10.37,2013-05-27 21:47:00,
2013-05-27 17:52:00,65.1,43.8,30.09,WSW,237,5.8,5.8,46,0.00,OVC,,0.00,42.0,WeatherDisplay:10.37,2013-05-27 21:52:00,
2013-05-27 17:57:00,64.9,43.0,30.09,West,263,1.2,1.2,45,0.00,OVC,,0.00,42.0,WeatherDisplay:10.37,2013-05-27 21:57:00,
2013-05-27 18:02:00,64.7,43.4,30.09,North,9,3.5,3.5,46,0.00,OVC,,0.00,39.0,WeatherDisplay:10.37,2013-05-27 22:02:00,
2013-05-27 18:07:00,64.6,42.2,30.09,SSW,205,2.3,2.3,44,0.00,OVC,,0.00,37.0,WeatherDisplay:10.37,2013-05-27 22:07:00,
2013-05-27 18:12:00,64.4,40.8,30.09,NNW,336,5.8,5.8,42,0.00,OVC,,0.00,37.0,WeatherDisplay:10.37,2013-05-27 22:12:00,
2013-05-27 18:17:00,64.3,40.7,30.09,WSW,239,2.3,2.3,42,0.00,OVC,,0.00,46.0,WeatherDisplay:10.37,2013-05-27 22:17:00,
2013-05-27 18:22:00,64.3,45.8,30.09,WSW,238,3.5,0.0,51,0.00,OVC,,0.00,33.0,WeatherDisplay:10.37,2013-05-27 22:22:00,
2013-05-27 18:27:00,64.1,45.6,30.09,WSW,257,4.6,4.6,51,0.00,OVC,,0.00,32.0,WeatherDisplay:10.37,2013-05-27 22:27:00,
2013-05-27 18:32:00,63.8,43.2,30.09,NNE,27,5.8,0.0,47,0.00,OVC,,0.00,30.0,WeatherDisplay:10.37,2013-05-27 22:32:00,
2013-05-27 18:37:00,63.5,41.8,30.09,WNW,303,2.3,2.3,45,0.00,OVC,,0.00,28.0,WeatherDisplay:10.37,2013-05-27 22:37:00,
2013-05-27 18:42:00,63.3,42.2,30.09,WNW,286,0.0,0.1,46,0.00,OVC,,0.00,28.0,WeatherDisplay:10.37,2013-05-27 22:42:00,
2013-05-27 18:47:00,63.1,42.5,30.09,NNW,336,4.6,4.6,47,0.00,OVC,,0.00,28.0,WeatherDisplay:10.37,2013-05-27 22:47:00,
2013-05-27 18:52:00,63.0,42.4,30.09,WNW,283,2.0,2.0,47,0.00,OVC,,0.00,25.0,WeatherDisplay:10.37,2013-05-27 22:52:00,
2013-05-27 18:57:00,62.7,42.2,30.09,WSW,250,2.3,2.3,47,0.00,OVC,,0.00,23.0,WeatherDisplay:10.37,2013-05-27 22:57:00,
2013-05-27 19:02:00,62.5,42.0,30.09,NW,325,3.5,3.5,47,0.00,CLR,,0.00,21.0,WeatherDisplay:10.37,2013-05-27 23:02:00,
2013-05-27 19:07:00,62.3,43.9,30.10,WSW,257,3.5,3.5,51,0.00,CLR,,0.00,21.0,WeatherDisplay:10.37,2013-05-27 23:07:00,
2013-05-27 19:12:00,62.1,43.2,30.10,SW,236,0.0,0.0,50,0.00,CLR,,0.00,19.0,WeatherDisplay:10.37,2013-05-27 23:12:00,
2013-05-27 19:17:00,61.8,43.0,30.10,SW,236,0.0,0.0,50,0.00,CLR,,0.00,18.0,WeatherDisplay:10.37,2013-05-27 23:17:00,
2013-05-27 19:22:00,61.5,43.2,30.10,SW,236,0.0,0.0,51,0.00,CLR,,0.00,16.0,WeatherDisplay:10.37,2013-05-27 23:22:00,
2013-05-27 19:27:00,61.2,42.9,30.10,North,0,0.0,0.0,51,0.00,CLR,,0.00,16.0,WeatherDisplay:10.37,2013-05-27 23:27:00,
2013-05-27 19:32:00,60.9,43.1,30.11,North,0,0.0,0.0,52,0.00,CLR,,0.00,14.0,WeatherDisplay:10.37,2013-05-27 23:32:00,
2013-05-27 19:37:00,60.5,43.3,30.11,North,0,0.0,0.0,53,0.00,CLR,,0.00,12.0,WeatherDisplay:10.37,2013-05-27 23:37:00,
2013-05-27 19:42:00,60.1,42.9,30.11,North,0,0.0,0.0,53,0.00,CLR,,0.00,11.0,WeatherDisplay:10.37,2013-05-27 23:42:00,
2013-05-27 19:47:00,59.8,43.1,30.11,North,0,0.0,0.0,54,0.00,CLR,,0.00,11.0,WeatherDisplay:10.37,2013-05-27 23:47:00,
2013-05-27 19:52:00,59.5,43.3,30.11,North,0,0.0,0.0,55,0.00,CLR,,0.00,9.0,WeatherDisplay:10.37,2013-05-27 23:52:00,
2013-05-27 19:57:00,59.1,42.9,30.11,North,0,0.0,0.0,55,0.00,CLR,,0.00,7.0,WeatherDisplay:10.37,2013-05-27 23:57:00,
2013-05-27 20:02:00,59.1,42.9,30.11,North,0,0.0,0.0,55,0.00,CLR,,0.00,5.0,WeatherDisplay:10.37,2013-05-28 00:02:00,
2013-05-27 20:07:00,58.7,43.0,30.11,North,0,0.0,0.0,56,0.00,CLR,,0.00,5.0,WeatherDisplay:10.37,2013-05-28 00:07:00,
2013-05-27 20:12:00,58.4,42.8,30.11,North,0,0.0,0.0,56,0.00,CLR,,0.00,0.0,WeatherDisplay:10.37,2013-05-28 00:12:00,
2013-05-27 20:17:00,58.1,42.9,30.12,North,0,0.0,0.0,57,0.00,CLR,,0.00,0.0,WeatherDisplay:10.37,2013-05-28 00:17:00,
2013-05-27 20:22:00,57.7,42.6,30.12,North,0,0.0,0.0,57,0.00,CLR,,0.00,0.0,WeatherDisplay:10.37,2013-05-28 00:22:00,
2013-05-27 20:27:00,57.3,42.6,30.11,North,0,0.0,0.0,58,0.00,CLR,,0.00,0.0,WeatherDisplay:10.37,2013-05-28 00:27:00,
2013-05-27 20:32:00,56.9,42.7,30.12,North,0,0.0,0.0,59,0.00,CLR,,0.00,0.0,WeatherDisplay:10.37,2013-05-28 00:32:00,
2013-05-27 20:37:00,56.4,42.7,30.12,North,0,0.0,0.0,60,0.00,CLR,,0.00,0.0,WeatherDisplay:10.37,2013-05-28 00:37:00,
2013-05-27 20:42:00,56.0,42.7,30.12,North,0,0.0,0.0,61,0.00,CLR,,0.00,0.0,WeatherDisplay:10.37,2013-05-28 00:42:00,
2013-05-27 20:47:00,55.5,42.3,30.12,North,0,0.0,0.0,61,0.00,CLR,,0.00,0.0,WeatherDisplay:10.37,2013-05-28 00:47:00,
2013-05-27 20:52:00,55.0,42.6,30.12,North,0,0.0,0.0,63,0.00,CLR,,0.00,0.0,WeatherDisplay:10.37,2013-05-28 00:52:00,
2013-05-27 20:57:00,54.5,42.6,30.13,North,0,0.0,0.0,64,0.00,CLR,,0.00,0.0,WeatherDisplay:10.37,2013-05-28 00:57:00,
2013-05-27 21:02:00,54.1,42.6,30.13,North,0,0.0,0.0,65,0.00,CLR,,0.00,0.0,WeatherDisplay:10.37,2013-05-28 01:02:00,
2013-05-27 21:07:00,53.7,42.6,30.13,North,0,0.0,0.0,66,0.00,CLR,,0.00,0.0,WeatherDisplay:10.37,2013-05-28 01:07:00,
2013-05-27 21:12:00,53.3,42.6,30.13,North,0,0.0,0.0,67,0.00,CLR,,0.00,0.0,WeatherDisplay:10.37,2013-05-28 01:12:00,
2013-05-27 21:17:00,53.0,42.7,30.13,North,0,0.0,0.0,68,0.00,CLR,,0.00,0.0,WeatherDisplay:10.37,2013-05-28 01:17:00,
2013-05-27 21:22:00,52.6,42.7,30.14,North,0,0.0,0.0,69,0.00,CLR,,0.00,0.0,WeatherDisplay:10.37,2013-05-28 01:22:00,
2013-05-27 21:27:00,52.2,42.7,30.14,North,0,0.0,0.0,70,0.00,CLR,,0.00,0.0,WeatherDisplay:10.37,2013-05-28 01:27:00,
2013-05-27 21:32:00,51.9,42.4,30.14,North,0,0.0,0.0,70,0.00,CLR,,0.00,0.0,WeatherDisplay:10.37,2013-05-28 01:32:00,
2013-05-27 21:37:00,51.5,42.4,30.14,North,0,0.0,0.0,71,0.00,CLR,,0.00,0.0,WeatherDisplay:10.37,2013-05-28 01:37:00,
2013-05-27 21:42:00,51.2,42.5,30.14,North,0,0.0,0.0,72,0.00,CLR,,0.00,0.0,WeatherDisplay:10.37,2013-05-28 01:42:00,
2013-05-27 21:47:00,50.8,42.8,30.15,North,0,0.0,0.0,74,0.00,CLR,,0.00,0.0,WeatherDisplay:10.37,2013-05-28 01:47:00,
2013-05-27 21:52:00,50.4,42.8,30.15,North,0,0.0,0.0,75,0.00,CLR,,0.00,0.0,WeatherDisplay:10.37,2013-05-28 01:52:00,
2013-05-27 21:57:00,50.0,42.0,30.15,North,0,0.0,0.0,74,0.00,CLR,,0.00,0.0,WeatherDisplay:10.37,2013-05-28 01:57:00,
2013-05-27 22:02:00,49.9,42.3,30.15,North,0,0.0,0.0,75,0.00,CLR,,0.00,0.0,WeatherDisplay:10.37,2013-05-28 02:02:00,
2013-05-27 22:07:00,49.8,42.5,30.15,North,0,0.0,0.0,76,0.00,CLR,,0.00,0.0,WeatherDisplay:10.37,2013-05-28 02:07:00,
2013-05-27 22:12:00,49.5,42.2,30.15,North,0,0.0,0.0,76,0.00,CLR,,0.00,0.0,WeatherDisplay:10.37,2013-05-28 02:12:00,
2013-05-27 22:17:00,49.3,42.4,30.15,North,0,0.0,0.0,77,0.00,CLR,,0.00,0.0,WeatherDisplay:10.37,2013-05-28 02:17:00,
2013-05-27 22:22:00,49.3,42.7,30.15,North,0,0.0,0.0,78,0.00,CLR,,0.00,0.0,WeatherDisplay:10.37,2013-05-28 02:22:00,
2013-05-27 22:27:00,49.1,42.5,30.15,North,0,0.0,0.0,78,0.00,CLR,,0.00,0.0,WeatherDisplay:10.37,2013-05-28 02:27:00,
2013-05-27 22:32:00,48.8,42.2,30.15,North,0,0.0,0.0,78,0.00,CLR,,0.00,0.0,WeatherDisplay:10.37,2013-05-28 02:32:00,
2013-05-27 22:37:00,48.7,42.5,30.16,North,0,0.0,0.0,79,0.00,CLR,,0.00,0.0,WeatherDisplay:10.37,2013-05-28 02:37:00,
2013-05-27 22:42:00,48.5,42.3,30.16,North,0,0.0,0.0,79,0.00,CLR,,0.00,0.0,WeatherDisplay:10.37,2013-05-28 02:42:00,
2013-05-27 22:47:00,48.3,42.1,30.16,North,0,0.0,0.0,79,0.00,CLR,,0.00,0.0,WeatherDisplay:10.37,2013-05-28 02:47:00,
2013-05-27 22:52:00,48.0,41.5,30.16,North,0,0.0,0.0,78,0.00,CLR,,0.00,0.0,WeatherDisplay:10.37,2013-05-28 02:52:00,
2013-05-27 22:57:00,47.8,41.3,30.16,North,0,0.0,0.0,78,0.00,CLR,,0.00,0.0,WeatherDisplay:10.37,2013-05-28 02:57:00,
2013-05-27 23:02:00,47.5,41.6,30.16,North,0,0.0,0.0,80,0.00,CLR,,0.00,0.0,WeatherDisplay:10.37,2013-05-28 03:02:00,
2013-05-27 23:07:00,47.3,41.4,30.16,North,0,0.0,0.0,80,0.00,CLR,,0.00,0.0,WeatherDisplay:10.37,2013-05-28 03:07:00,
2013-05-27 23:12:00,47.1,41.6,30.17,North,0,0.0,0.0,81,0.00,CLR,,0.00,0.0,WeatherDisplay:10.37,2013-05-28 03:12:00,
2013-05-27 23:17:00,46.9,41.4,30.17,North,0,0.0,0.0,81,0.00,CLR,,0.00,0.0,WeatherDisplay:10.37,2013-05-28 03:17:00,
2013-05-27 23:22:00,46.7,41.5,30.17,North,0,0.0,0.0,82,0.00,CLR,,0.00,0.0,WeatherDisplay:10.37,2013-05-28 03:22:00,
2013-05-27 23:27:00,46.6,41.4,30.17,North,0,0.0,0.0,82,0.00,CLR,,0.00,0.0,WeatherDisplay:10.37,2013-05-28 03:27:00,
2013-05-27 23:32:00,46.4,41.2,30.17,North,0,0.0,0.0,82,0.00,CLR,,0.00,0.0,WeatherDisplay:10.37,2013-05-28 03:32:00,
2013-05-27 23:37:00,46.3,41.1,30.17,North,0,0.0,0.0,82,0.00,CLR,,0.00,0.0,WeatherDisplay:10.37,2013-05-28 03:37:00,
2013-05-27 23:42:00,46.2,41.3,30.17,North,0,0.0,0.0,83,0.00,CLR,,0.00,0.0,WeatherDisplay:10.37,2013-05-28 03:42:00,
2013-05-27 23:47:00,46.1,41.2,30.17,North,0,0.0,0.0,83,0.00,CLR,,0.00,0.0,WeatherDisplay:10.37,2013-05-28 03:47:00,
2013-05-27 23:52:00,45.9,41.0,30.17,North,0,0.0,0.0,83,0.00,CLR,,0.00,0.0,WeatherDisplay:10.37,2013-05-28 03:52:00,
2013-05-27 23:57:00,45.7,40.8,30.17,North,0,0.0,0.0,83,0.00,CLR,,0.00,0.0,WeatherDisplay:10.37,2013-05-28 03:57:00,